Regional Weather Roundup
Issued by NWS San Diego, CA

Home | Current Version | Previous Version | Text Only | Print | Product List | Glossary On
Versions: 1 2 3 4 5 6 7 8 9 10 11 12 13 14 15 16 17 18 19 20 21 22 23 24 25 26 27 28
000
ASUS46 KSGX 261211
RWRSGX

SAN DIEGO HOURLY WEATHER ROUNDUP
NATIONAL WEATHER SERVICE SAN DIEGO CA
500 AM PDT THU APR 26 2018

NOTE: "FAIR" INDICATES FEW OR NO CLOUDS BELOW 12,000 FEET WITH NO
SIGNIFICANT WEATHER AND/OR OBSTRUCTIONS TO VISIBILITY.

CAZ042-043-060-061-PZZ750-775-261300-

GREATER SAN DIEGO AREA

CITY           SKY/WX    TMP DP  RH WIND       PRES   REMARKS
SAN DIEGO AP   MOCLDY    58  50  75 NE5       30.01S
NATIONAL CITY    N/A     58  53  83 NW2       30.02R
CHULA VISTA      N/A     58  53  85 CALM      29.91F
IMPERIAL BEACH CLOUDY    59  51  75 NW7       30.00S
BROWN FIELD    CLOUDY    57  52  83 CALM      29.99S
MIRAMAR MCAS   CLOUDY    59  50  72 CALM      29.99S
MONTGOMERY FLD CLOUDY    56  50  80 CALM      30.00S
GILLESPIE FLD  CLOUDY    57  52  82 W5        29.98F

$$

NORTH SAN DIEGO COUNTY

CITY           SKY/WX    TMP DP  RH WIND       PRES   REMARKS
CAMP PENDLETON CLOUDY    56  51  84 CALM      30.00R
OCEANSIDE AP   CLOUDY    57  50  77 N5        29.99S
OCEANSIDE HBR    N/A     58  54  87 SE2       30.02S
VISTA            N/A     56  51  83 CALM      29.97S
CARLSBAD       CLOUDY    57  51  80 CALM      29.98S
DEL MAR          N/A     56  52  86 CALM      30.01S
LA JOLLA SCRIP   N/A     56  52  88 NE1       29.99S
FALLBROOK        N/A     54  54 100 CALM      30.00S
ESCONDIDO        N/A     56  52  86 N2        29.99S
SAN MARCOS       N/A     55  50  86 CALM      30.02F
POWAY            N/A     55  51  85 CALM      29.98S

$$

EAST SAN DIEGO COUNTY

CITY           SKY/WX    TMP DP  RH WIND       PRES   REMARKS
RAMONA         FOG       49  49 100 CALM      29.99S VSB 1/4
SANTEE LAKES     N/A     56  52  88 CALM      29.98S
LA MESA          N/A     55  52  88 CALM      29.93F
JAMUL            N/A     53  51  94 CALM      29.98F
CAMPO            N/A     45  36  70 NE6       29.97S

$$

ORANGE COUNTY AND THE LOS ANGELES BASIN

CITY           SKY/WX    TMP DP  RH WIND       PRES   REMARKS
JOHN WAYNE AP  CLOUDY    57  52  83 E5        30.00S
LAGUNA BEACH     N/A     57  53  86 CALM      29.95R
LAKE FOREST FR   N/A     51  47  87 CALM      29.88S
HUNTINGTON BCH   N/A     56  54  93 CALM      30.01S
LOS ALAMITOS   CLOUDY    56  51  84 CALM      30.00R
FULLERTON      CLOUDY    57  52  83 CALM      29.99S
LONG BEACH     CLOUDY    56  52  86 N5        30.00S
L.A. AP        CLOUDY    56  51  84 W5        30.00S
L.A. DOWNTOWN  CLOUDY    56  51  84 CALM      29.99S

$$

THE INLAND EMPIRE

CITY           SKY/WX    TMP DP  RH WIND       PRES   REMARKS
CORONA         CLEAR     51  49  92 W3        30.00S FOG
CHINO          CLEAR     52  47  83 W5        30.00S HAZE
ONTARIO        PTCLDY    52  48  86 W6        29.99R
SAN BERNARDINO FAIR      55  43  64 CALM      29.99S
RIVERSIDE AP   CLEAR     53  50  89 W5        29.99R
MORENO VALLEY    N/A     53  46  78 CALM      28.10S
MARCH ARB      CLEAR     48  47  95 CALM      29.98S
HORSETHIEF CYN   N/A     50  39  64 CALM      29.96S
PERRIS           N/A     53  49  85 CALM      29.92F
HEMET EAST       N/A     55  33  43 CALM      29.88S
FRENCH VALLEY  FAIR      48  46  93 CALM      29.99S
TEMECULA         N/A     51  50  96 CALM      30.04S

$$

SAN BERNARDINO AND RIVERSIDE COUNTY MOUNTAINS

CITY           SKY/WX    TMP DP  RH WIND       PRES   REMARKS
BIG BEAR AP    CLEAR     32  21  64 CALM      30.16F
ANGELUS OAKS     N/A     50  27  39 CALM      29.83F

$$

SOUTHERN DESERT INCLUDING THE COACHELLA VALLEY

CITY           SKY/WX    TMP DP  RH WIND       PRES   REMARKS
PALM SPRINGS   CLEAR     67  46  47 CALM      29.83S
THOUSAND PALMS   N/A     75  37  25 NW21      29.77S
PALM DESERT      N/A     67  48  50 CALM      31.75S
THERMAL        CLEAR     77  38  24 NW10      29.78S
BLYTHE         PTCLDY    67  33  28 N5        29.80R
IMPERIAL AP    MOCLDY    75  22  13 W10       29.79S
EL CENTRO NAS  MOCLDY    78  12   8 W16       29.81S
YUMA AZ        MOCLDY    74  34  23 CALM      29.81S

$$

UPPER DESERT

CITY           SKY/WX    TMP DP  RH WIND       PRES   REMARKS
VICTORVILLE AP CLEAR     54  25  32 S5        29.97F
HESPERIA         N/A     57  33  40 W7        29.90S
APPLE VALLEY     N/A     43  37  78 CALM      29.93S
PALMDALE       CLEAR     60  28  29 S9        29.97F
LANCASTER      CLEAR     60  29  30 W10       29.96F
EDWARDS AFB    CLEAR     57  32  38 S7        29.93F
DAGGETT        CLEAR     62  33  33 W13       29.93S
29 PALMS N     CLEAR     68  24  19 W16       29.97S
NEEDLES        CLEAR     73  18  12 W6        29.83S

$$

REGIONAL REPORTS

CITY           SKY/WX    TMP DP  RH WIND       PRES   REMARKS
SANTA BARBARA  FOG       51  50  96 N3        29.99R VSB 1/2
SANDBERG       CLEAR     58  37  45 NW13      30.06S
LAS VEGAS NV   PTCLDY    71  28  20 CALM      29.89S
PHOENIX AZ     PTCLDY    73  36  25 E6        29.83R
TIJUANA        CLOUDY    57  54  88 CALM      30.02
ENSENADA NW      N/A     57  32  38 CALM      29.93S

$$

OFFSHORE ISLANDS

CITY           SKY/WX    TMP DP  RH WIND       PRES   REMARKS
CATALINA ARPT  HAZE      49  30  48 SW6       30.00S VSB 1/4
SAN NICOLAS IS MOCLDY    53  32  44 W16       30.01S

$$

MARINE AND OFFSHORE BUOY REPORTS

STATION/POSITION SKY/WX   TEMP    WIND        PRES    VSBY  SWELL
                          AIR SEA DIR/SP/G                  HT/PER/DIR
                          (F)     (DEG/KT/KT) (MB)    (MI)  (FT/S/D)
TANNER BANKS               56 60              1016.6R
S CLEMENTE BASIN           58 63  360/  6/  8 1016.2R         5/270/15
SAN NICOLAS IS.               56                N/A           5/290/14
SO. S. ROSA ISLA           54 55  290/ 14/ 17 1016.1R         7/310/14
W. S. BARBARA CH              54  310/ 16/ 19 1015.7R         7/280/14
M. S. BARBARA CH           53 55  270/  6/  8 1016.3          3/260/14
S. MONICA BASIN                   190/  4/  8 1015.6R         2/160/16
S PEDRO CHANNEL               57                N/A           2/170/17
CMP PENDLETON NS              62                N/A           3/210/17
OCEANSIDE OFFSHR              61                N/A           3/190/15
TORREY PINES OTR              61                N/A           3/250/15
SAN DIEGO BAY                 64              1015.4F
POINT LOMA SOUTH              60                N/A           5/270/14

$$





USA.gov is the U.S. government's official web portal to all federal, state and local government web resources and services.